This is the latest recevied weather packets stored in our database for station/object KC4GS-13. If no packets are shown the sender has not sent any weather packets the latest 10 day(s).
| Time | Temp. | Humidity | Pressure | Rain* | Wind** | Luminosity | Snow |
|---|---|---|---|---|---|---|---|
| 1777831174 | 21.67° C | 46% | 1020.5 hPa | 0 mm | - | 790 W/m² | - |
| 1777830873 | 21.67° C | 43% | 1020.8 hPa | 0 mm | - | 789 W/m² | - |
| 1777830568 | 21.67° C | 44% | 1020.5 hPa | 0 mm | - | 758 W/m² | - |
| 1777830267 | 21.11° C | 47% | 1020.5 hPa | 0 mm | - | 772 W/m² | - |
| 1777829967 | 20.56° C | 46% | 1020.8 hPa | 0 mm | - | 683 W/m² | - |
| 1777829663 | 20.56° C | 46% | 1020.8 hPa | 0 mm | - | 150 W/m² | - |
| 1777829360 | 20.56° C | 46% | 1020.9 hPa | 0 mm | - | 838 W/m² | - |
| 1777829057 | 20.56° C | 46% | 1020.6 hPa | 0 mm | - | 832 W/m² | - |
| 1777828753 | 20° C | 47% | 1020.8 hPa | 0 mm | - | 789 W/m² | - |
| 1777828450 | 20° C | 48% | 1020.8 hPa | 0 mm | - | 760 W/m² | - |
| 1777828148 | 20° C | 49% | 1020.9 hPa | 0 mm | - | 789 W/m² | - |
| 1777827844 | 20° C | 46% | 1021 hPa | 0 mm | - | 806 W/m² | - |
| 1777827541 | 20° C | 48% | 1021 hPa | 0 mm | - | 763 W/m² | - |
| 1777827239 | 20° C | 49% | 1020.8 hPa | 0 mm | - | 771 W/m² | - |
| 1777826934 | 19.44° C | 47% | 1021 hPa | 0 mm | - | 282 W/m² | - |
| 1777826632 | 19.44° C | 48% | 1021.2 hPa | 0 mm | - | 243 W/m² | - |
| 1777826327 | 19.44° C | 49% | 1021.1 hPa | 0 mm | - | 594 W/m² | - |
| 1777826026 | 19.44° C | 48% | 1021.4 hPa | 0 mm | - | 761 W/m² | - |
| 1777825722 | 18.89° C | 47% | 1021.3 hPa | 0 mm | - | 292 W/m² | - |
| 1777825420 | 18.89° C | 47% | 1021.5 hPa | 0 mm | - | 204 W/m² | - |
| 1777825117 | 18.89° C | 51% | 1021.5 hPa | 0 mm | - | 132 W/m² | - |
| 1777824813 | 18.89° C | 50% | 1021.6 hPa | 0 mm | - | 527 W/m² | - |
| 1777824510 | 18.89° C | 54% | 1021.4 hPa | 0 mm | - | 363 W/m² | - |
| 1777824206 | 18.33° C | 53% | 1021.6 hPa | 0 mm | - | 451 W/m² | - |
| 1777823902 | 18.33° C | 57% | 1021.7 hPa | 0 mm | - | 847 W/m² | - |
* Rain latest hour (hover to see other rain measurements)
** Current wind speed in m/s (hover to see current wind gust speed)